Regional Weather Roundup
Issued by NWS

Home | Current Version | Previous Version | Text Only | Print | Product List | Glossary Off
Versions: 1 2 3 4 5 6 7 8 9 10 11 12 13 14 15 16 17 18 19 20 21 22 23 24 25 26 27 28 29 30 31 32 33 34 35 36 37 38 39 40 41 42 43 44 45 46 47 48 49 50

157
ASUS45 KSLC 240210
RWRUT

UTAH REGIONAL WEATHER ROUNDUP
NATIONAL WEATHER SERVICE SALT LAKE CITY UT
800 PM MDT MON MAY 23 2016

UTZ001>011-023>025-240300-

NORTHERN UTAH

CITY           SKY/WX    TMP DP  RH WIND       PRES   REMARKS
BRIGHAM CITY     N/A     65  24  21 CALM      29.84S
HILL AFB       PTCLDY    63  32  31 NW6       29.84S
LOGAN          CLEAR     60  40  47 N6        29.84S
OGDEN          CLEAR     63  34  33 N9        29.82F
PROVO AIRPORT  PTCLDY    64  37  36 VRB5      29.81F
SALT LAKE CITY PTCLDY    67  33  28 N8        29.81S
VERNAL         CLEAR     64  26  23 W5        29.84S
WENDOVER       CLOUDY    63  34  34 NW15      29.81S
HEBER CITY     MOCLDY    61  30  31 W7        29.84S
WEST JORDAN    CLEAR     63  34  34 NW6       29.82F

$$

UTZ012>022-026-027-240300-

SOUTHERN/CENTRAL UTAH

CITY           SKY/WX    TMP DP  RH WIND       PRES   REMARKS
BLANDING       CLEAR     67  12  12 S5        29.94S
BRYCE CANYON   PTCLDY    57  13  17 S12       29.93S
CEDAR CITY     CLEAR     63  18  17 SW14      29.82S
DELTA          PTCLDY    64  25  22 N3        29.79S
HANKSVILLE     PTCLDY    73  14  10 S12       29.77S
MILFORD        MOCLDY    68  17  14 SW14      29.78S
MOAB/CYNLANDS  CLEAR     73   9   8 W10       29.76S
PRICE          MOCLDY    63  18  17 E8        29.84S
ST GEORGE      MOCLDY    77  23  13 W14       29.72S
KANAB          CLEAR     70  16  12 SW12      29.82F

$$

REGIONAL REPORTS     COLORADO/ARIZONA

CITY           SKY/WX    TMP DP  RH WIND       PRES   REMARKS
CRAIG, CO      CLOUDY    61  28  28 N5        29.90R
GRAND JUNCTION PTCLDY    67  20  16 NW9       29.81R
RIFLE          PTCLDY    65  25  22 W3        29.84S
MONTROSE       CLOUDY    68  14  12 W10       29.88R
CORTEZ         CLEAR     68  15  13 SW7       29.88S
PAGE, AZ       CLEAR     77  15   9 N7        29.74F
GRAND CANYON   CLEAR     63  14  15 SW16G25   29.93S
KINGMAN        CLEAR     73  22  14 SW21G26   29.79S
FLAGSTAFF      CLEAR     57  17  21 SW14G24   29.98R

$$

REGIONAL REPORTS    NEVADA/IDAHO/WYOMING

CITY           SKY/WX    TMP DP  RH WIND       PRES   REMARKS
LAS VEGAS, NV  PTCLDY    79  21  11 SW14      29.65S
ELY            PTCLDY    58  22  24 S10       29.82S
ELKO           CLOUDY    57  34  41 NE7       29.84S
POCATELLO, ID  PTCLDY    59  33  37 SW10      29.85S
BURLEY         MOCLDY    57  40  52 S6        29.84S
EVANSTON, WY   CLEAR     52  26  36 W7        29.93S
ROCK SPRINGS   PTCLDY    52  30  43 SW8       29.94S
KEMMERER         N/A     50  25  37 W8        29.95S

$$




USA.gov is the U.S. government's official web portal to all federal, state and local government web resources and services.